Regional Weather Roundup
Issued by NWS

Home | Current Version | Previous Version | Graphics & Text | Print | Product List | Glossary On
Versions: 1 2 3 4 5 6 7 8 9 10 11 12 13 14 15 16 17 18 19 20 21 22 23 24 25 26 27 28 29 30 31 32 33 34 35 36 37 38 39 40 41 42 43 44 45 46 47 48 49 50
113
ASUS43 KDMX 240706
RWRIA

WEATHER ROUNDUP FOR IOWA
NATIONAL WEATHER SERVICE DES MOINES IA
200 AM CDT SUN SEP 24 2017

NOTE: "FAIR" INDICATES FEW OR NO CLOUDS BELOW 12,000 FEET WITH NO
SIGNIFICANT WEATHER AND/OR OBSTRUCTIONS TO VISIBILITY.

* - THESE STATIONS ARE NOT NWS STATIONS...THUS NOT UNDER NWS
QUALITY CONTROL.  THEY ALSO DO NOT REPORT WEATHER SUCH
AS PRECIPITATION OR FOG.

IAZ001>003-012>014-020>022-031>034-043>046-240800-
   NORTHWEST IOWA

CITY           SKY/WX    TMP DP  RH WIND       PRES   REMARKS
CARROLL *      PTCLDY    66  64  94 S5        29.95S
CHEROKEE *     PTCLDY    67  65  91 CALM      29.92S
DENISON *      PTCLDY    73  66  78 S12       29.94S
LE MARS *      PTCLDY    64  63  94 CALM      29.90S
ORANGE CITY *  PTCLDY    70  66  88 E3        29.92R
SHELDON *      PTCLDY    68  63  83 SE6       29.91S
SIOUX CITY     CLEAR     61  60  97 NW3       29.89S
SPENCER        PTCLDY    67  63  87 S5        29.94R
STORM LAKE *   PTCLDY    70  64  83 S8        29.94R
$$

IAZ055>058-069>071-079>083-090>094-240800-
   SOUTHWEST IOWA

CITY           SKY/WX    TMP DP  RH WIND       PRES   REMARKS
ATLANTIC *     PTCLDY    72  66  83 S6        29.94S
AUDUBON *      CLEAR     64  63  94 CALM      29.96S
CLARINDA *     CLEAR     64  64 100 CALM      29.96S
COUNCIL BLFS * PTCLDY    72  68  88 SE9       29.92F
CRESTON *      CLOUDY    68  64  88 SE6       29.98S
HARLAN  *      PTCLDY    73  66  78 S7        29.97S
LAMONI         CLEAR     72  65  78 SE3       29.98S
RED OAK *      CLEAR     70  66  88 CALM      29.94S
SHENANDOAH *   PTCLDY    70  66  88 SE7       29.93S
$$

IAZ047>049-059>061-072>074-084-240800-
   CENTRAL IOWA

CITY           SKY/WX    TMP DP  RH WIND       PRES   REMARKS
AMES           MOCLDY    70  66  87 SE6       29.97R
ANKENY *       PTCLDY    70  64  83 CALM      29.98S
BOONE *        PTCLDY    70  64  83 SE5       29.96S
CHARITON *     CLEAR     72  64  78 SE7       29.99S
DES MOINES     CLEAR     74  64  71 SE8       29.96S
GRINNELL*      MOCLDY    73  62  67 S6        30.01R
KNOXVILLE *    PTCLDY    73  63  68 S5        29.98R
MARSHALLTOWN   CLEAR     71  63  75 SE7       29.98S
NEWTON *       MOCLDY    72  63  73 SE8       29.99S
PELLA *        PTCLDY    72  61  68 SE3       30.00R
PERRY *          N/A     68  66  93 SE6       29.96S
$$

IAZ004>006-015-016-023>025-035-036-240800-
   NORTH CENTRAL IOWA

CITY           SKY/WX    TMP DP  RH WIND       PRES   REMARKS
ALGONA *       PTCLDY    73  66  78 S8        29.95S
CLARION *      CLEAR     72  64  78 SE8       29.97S
ESTHERVILLE    PTCLDY    68  64  87 S9        29.93S
FORT DODGE *   CLOUDY    75  65  70 SE6       29.96S
MASON CITY     CLEAR     69  62  78 SE7       29.99F
FOREST CITY *    N/A     68  63  83 S7        29.97S
WEBSTER CITY * CLEAR     72  64  78 SE6       29.95S
IOWA FALLS *     N/A     69  64  83 SE6       30.00S
$$

IAZ007>011-017>019-026>030-037>042-050>054-066-240800-
   NORTHEAST IOWA

CITY           SKY/WX    TMP DP  RH WIND       PRES   REMARKS
CEDAR RAPIDS     N/A     71  62  73 SE5       30.00S
CHARLES CITY * CLEAR     70  63  78 SE7       30.01R
CLINTON *      CLEAR    N/A N/A N/A SE6       30.04S
DECORAH *      CLEAR     70  63  78 S6        30.01S
DUBUQUE        CLEAR     72  63  73 SE8       30.05R
MONTICELLO *   CLEAR     64  63  94 CALM      30.02S
OELWEIN *      CLEAR     70  64  83 SE7       30.02S
WATERLOO       CLEAR     72  62  71 SE9       29.99R
$$

IAZ064-065-067-068-078-240800-
   EAST CENTRAL IOWA

CITY           SKY/WX    TMP DP  RH WIND       PRES   REMARKS
DAVENPORT      CLEAR     70  63  78 SE7       30.04S
IOWA CITY      CLEAR     69  64  84 CALM      30.02S
MUSCATINE *    CLEAR     66  64  94 CALM      30.02R
QUAD CITIES    CLEAR     72  62  71 E3        30.01S
$$

IAZ062-063-075>077-085>089-095>099-240800-
   SOUTHEAST IOWA

CITY           SKY/WX    TMP DP  RH WIND       PRES   REMARKS
BURLINGTON     CLEAR     70  62  76 SE5       30.01S
FAIRFIELD *    CLEAR     70  61  73 SE5       30.00R
FORT MADISON * CLEAR     73  61  64 SE5       30.01F
KEOKUK *       CLEAR     72  61  68 SE5       30.00S
OSKALOOSA *      N/A     68  63  82 SE5       30.00R
OTTUMWA        CLEAR     72  62  71 S6        29.99S
WASHINGTON *   CLEAR     64  63  94 SE6       30.02R
$$

ABBREVIATIONS USED IN REMARKS
   TC - TEMPERATURES IN CELSIUS
  WCI - WIND CHILL INDEX
   HX - HEAT INDEX
  VSB - VISIBILITY
$$





USA.gov is the U.S. government's official web portal to all federal, state and local government web resources and services.